SCP
0 0 0 0 0 0 0 0 1 0 0 0 0 0 0 0 0 0 0 0 0 0
0 0 0 0 0 0 1 0 0 0 0 0 0 0 0 0 0 0 0 0 0 0
0 0 1 1 1 0 1 0 1 0 0 0 0 0 0 0 0 0 0 0 0 0
0 0 0 1 0 1 1 1 1 0 0 0 0 0 1 1 1 0 0 0 0 0
0 0 0 1 0 0 1 1 1 1 0 0 0 1 1 1 1 0 0 0 0 0
0 0 0 0 0 1 1 1 1 1 1 1 0 0 1 1 1 1 1 1 1 1
0 0 0 0 1 1 2 2 1 1 2 1 1 1 1 1 1 1 1 1 1 1
1 1 0 1 1 1 1 1 2 2 2 1 1 1 1 1 1 1 1 1 1 1
1 1 1 1 1 1 2 2 2 2 2 2 1 1 1 1 1 1 1 1 1 1
2 1 1 1 1 2 2 2 2 3 3 2 3 1 0 1 2 2 2 2 2 2
1 1 2 1 1 1 1 1 1 1 1 2 2 1 1 0 2 2 2 2 2 2
2 1 3 3 3 2 2 1 1 1 1 1 2 1 1 0 1 1 2 2 2 2
2 6 3 2 3 3 1 1 1 1 1 1 1 1 1 0 2 1 1 1 1 1
2 2 1 1 1 3 1 1 1 1 1 0 0 1 1 0 1 1 1 1 1 1
Wind_Speed_500mb
45 42 35 37 30 24 22 20 29 27 21 21 18 16 17 15 20 22 22 24 23 19
55 49 41 38 38 25 23 20 21 21 23 22 21 20 19 12 21 23 19 20 21 21
64 61 47 47 36 40 30 31 17 21 23 23 24 24 24 18 23 20 16 15 24 21
56 58 61 43 41 45 40 34 35 26 25 26 25 26 27 24 18 21 20 22 23 26
54 56 54 59 51 43 47 45 39 35 31 29 30 28 28 29 26 27 25 24 25 26
55 55 60 56 52 49 46 50 41 41 41 37 36 36 36 33 31 30 31 31 31 33
59 53 56 60 57 61 57 56 55 49 50 46 43 40 41 39 35 36 35 36 38 37
63 58 54 56 60 60 64 60 56 55 54 47 43 43 45 44 42 42 39 39 39 41
62 67 68 62 58 64 67 71 65 67 62 55 49 49 51 51 43 42 42 43 43 43
58 60 63 67 63 61 65 69 69 71 69 65 62 56 57 59 62 60 57 56 58 55
50 53 53 55 57 57 54 57 59 61 66 71 68 65 66 70 73 75 76 75 74 74
37 38 47 43 41 45 48 55 52 54 57 61 66 64 64 59 63 66 71 71 72 72
41 41 31 36 30 19 43 49 47 53 57 56 56 54 60 61 63 55 55 59 60 62
51 49 56 48 60 75 69 54 52 54 54 54 55 53 50 50 52 53 49 51 52 51
Wind_Direction_500mb
196 198 188 203 197 211 210 206 214 233 210 204 228 225 234 237 235 246 243 251 252 244
207 195 206 206 205 206 219 214 213 214 204 208 214 224 240 218 252 229 253 259 257 256
215 209 203 208 212 199 215 219 206 210 214 215 217 224 231 229 254 262 245 251 260 259
211 211 208 211 215 210 204 221 213 220 216 222 225 225 233 227 231 262 249 236 239 259
210 208 211 212 218 219 214 216 226 221 223 218 223 229 231 237 242 245 252 255 257 257
209 212 212 217 213 219 218 221 218 224 224 224 222 224 234 239 239 243 249 252 254 258
213 214 216 213 221 219 220 225 221 223 229 230 232 229 227 231 242 246 249 249 252 255
214 216 215 220 221 224 222 225 223 224 225 233 231 232 234 234 238 244 251 252 251 257
214 218 217 215 225 225 227 229 224 226 227 228 232 237 240 240 241 247 252 256 261 260
215 221 222 225 226 229 232 233 233 233 235 236 235 239 242 247 250 247 248 252 254 258
211 214 220 224 228 232 235 239 240 241 244 245 250 249 245 245 249 253 258 261 263 264
213 216 216 215 227 240 244 245 243 249 249 249 252 247 251 252 252 255 259 262 264 265
199 201 214 221 217 251 265 250 246 247 248 256 257 256 254 251 250 251 255 262 269 275
208 206 223 243 260 273 262 257 252 248 251 251 254 260 262 264 264 259 258 261 265 267
Wind_Speed_850mb
45 42 35 37 30 24 22 20 29 27 21 21 18 16 17 15 20 22 22 24 23 19
55 49 41 38 38 25 23 20 21 21 23 22 21 20 19 12 21 23 19 20 21 21
64 61 47 47 36 40 30 31 17 21 23 23 24 24 24 18 23 20 16 15 24 21
56 58 61 43 41 45 40 34 35 26 25 26 25 26 27 24 18 21 20 22 23 26
54 56 54 59 51 43 47 45 39 35 31 29 30 28 28 29 26 27 25 24 25 26
55 55 60 56 52 49 46 50 41 41 41 37 36 36 36 33 31 30 31 31 31 33
59 53 56 60 57 61 57 56 55 49 50 46 43 40 41 39 35 36 35 36 38 37
63 58 54 56 60 60 64 60 56 55 54 47 43 43 45 44 42 42 39 39 39 41
62 67 68 62 58 64 67 71 65 67 62 55 49 49 51 51 43 42 42 43 43 43
58 60 63 67 63 61 65 69 69 71 69 65 62 56 57 59 62 60 57 56 58 55
50 53 53 55 57 57 54 57 59 61 66 71 68 65 66 70 73 75 76 75 74 74
37 38 47 43 41 45 48 55 52 54 57 61 66 64 64 59 63 66 71 71 72 72
41 41 31 36 30 19 43 49 47 53 57 56 56 54 60 61 63 55 55 59 60 62
51 49 56 48 60 75 69 54 52 54 54 54 55 53 50 50 52 53 49 51 52 51
Wind_Direction_850mb
196 198 188 203 197 211 210 206 214 233 210 204 228 225 234 237 235 246 243 251 252 244
207 195 206 206 205 206 219 214 213 214 204 208 214 224 240 218 252 229 253 259 257 256
215 209 203 208 212 199 215 219 206 210 214 215 217 224 231 229 254 262 245 251 260 259
211 211 208 211 215 210 204 221 213 220 216 222 225 225 233 227 231 262 249 236 239 259
210 208 211 212 218 219 214 216 226 221 223 218 223 229 231 237 242 245 252 255 257 257
209 212 212 217 213 219 218 221 218 224 224 224 222 224 234 239 239 243 249 252 254 258
213 214 216 213 221 219 220 225 221 223 229 230 232 229 227 231 242 246 249 249 252 255
214 216 215 220 221 224 222 225 223 224 225 233 231 232 234 234 238 244 251 252 251 257
214 218 217 215 225 225 227 229 224 226 227 228 232 237 240 240 241 247 252 256 261 260
215 221 222 225 226 229 232 233 233 233 235 236 235 239 242 247 250 247 248 252 254 258
211 214 220 224 228 232 235 239 240 241 244 245 250 249 245 245 249 253 258 261 263 264
213 216 216 215 227 240 244 245 243 249 249 249 252 247 251 252 252 255 259 262 264 265
199 201 214 221 217 251 265 250 246 247 248 256 257 256 254 251 250 251 255 262 269 275
208 206 223 243 260 273 262 257 252 248 251 251 254 260 262 264 264 259 258 261 265 267